Stations météo

réclame
Mon MeteoGroup
Ciudad Real, Espagne (8348): Température de l'air & dewpoint: 17.04.2018 03:00:00 - 23.04.2018 03:00:00 (CEST)Ciudad Real, Espagne (8348): Vitesse du vent: 17.04.2018 03:00:00 - 23.04.2018 03:00:00 (CEST)Ciudad Real, Espagne (8348): Direction du vent: 17.04.2018 03:00:00 - 23.04.2018 03:00:00 (CEST)Ciudad Real, Espagne (8348): reduced air pressure: 17.04.2018 03:00:00 - 23.04.2018 03:00:00 (CEST)Ciudad Real, Espagne (8348): visibility: 17.04.2018 03:00:00 - 23.04.2018 03:00:00 (CEST)Ciudad Real, Espagne (8348): Quantités de précipitations: 17.04.2018 03:00:00 - 23.04.2018 03:00:00 (CEST)
Date & Time tt [°C] td [°C] ff [km/h] ff [knt] dd ppp [hPa] vv [km] rr [mm]
23.04.2018 03:00:00 17,5 9,4 11 6 ESE 1015,7 20 0,0
23.04.2018 02:00:00 15,8 9,2 13 7 E 1016,4 19 -
23.04.2018 01:00:00 16,5 8,7 5 3 SE 1016,5 20 0,0
23.04.2018 00:00:00 16,9 8,8 11 6 ENE 1015,0 20 0,0
22.04.2018 23:00:00 17,7 8,3 11 6 ENE 1014,1 20 -
22.04.2018 22:00:00 19,3 9,5 9 5 NNE 1012,4 20 0,0
22.04.2018 21:00:00 21,0 9,9 9 5 NNE 1011,8 20 0,0
22.04.2018 20:00:00 23,0 9,7 9 5 NNE 1010,9 20 -
22.04.2018 19:00:00 24,1 9,3 15 8 NE 1010,6 19 0,0
22.04.2018 18:00:00 23,6 9,6 16 9 ENE 1010,9 20 0,0
22.04.2018 17:00:00 23,5 10,5 16 9 ENE 1010,9 20 -
22.04.2018 16:00:00 21,9 11,0 11 6 ENE 1011,7 18 0,0
22.04.2018 15:00:00 22,8 9,2 13 7 NNE 1011,9 19 0,0
22.04.2018 14:00:00 20,6 9,8 9 5 NNE 1013,4 19 -
22.04.2018 13:00:00 20,6 9,8 13 7 NE 1014,0 20 0,0
22.04.2018 12:00:00 18,7 9,5 15 8 ENE 1014,2 20 0,0
22.04.2018 11:00:00 17,9 9,0 15 8 ENE 1014,4 20 -
22.04.2018 10:00:00 15,6 9,7 9 5 NE 1015,2 19 0,0
22.04.2018 09:00:00 12,4 9,0 4 2 NE 1016,4 17 0,0
22.04.2018 08:00:00 11,0 8,4 2 1 NNE 1016,3 16 -
22.04.2018 07:00:00 11,3 8,5 8 4 NE 1016,0 16 0,0
22.04.2018 06:00:00 12,0 8,7 9 5 NNE 1016,5 16 0,0
22.04.2018 05:00:00 12,5 8,4 4 2 NE 1016,6 17 -
22.04.2018 04:00:00 13,1 8,4 5 3 N 1016,7 18 0,0
22.04.2018 03:00:00 13,7 9,1 5 3 NNW 1017,5 17 0,0
22.04.2018 02:00:00 14,5 9,1 5 3 NE 1017,2 17 -
22.04.2018 01:00:00 15,7 8,7 11 6 ENE 1016,4 18 0,0
22.04.2018 00:00:00 16,5 8,9 11 6 ENE 1015,8 18 0,0
21.04.2018 23:00:00 17,1 10,5 8 4 NE 1015,3 18 -
21.04.2018 22:00:00 18,4 10,0 5 3 ENE 1014,9 18 0,0
21.04.2018 21:00:00 19,8 9,9 8 4 NNE 1013,5 18 0,0
21.04.2018 20:00:00 21,6 10,4 9 5 NNE 1012,8 18 -
21.04.2018 19:00:00 22,8 10,2 9 5 NNE 1012,4 18 0,0
21.04.2018 18:00:00 23,1 9,1 8 4 N 1012,8 18 0,0
21.04.2018 17:00:00 23,8 9,8 8 4 NNE 1013,1 19 -
21.04.2018 16:00:00 22,9 10,0 11 6 ENE 1013,6 19 0,0
21.04.2018 15:00:00 21,2 9,7 11 6 ENE 1014,7 18 0,0
21.04.2018 14:00:00 19,3 9,8 13 7 NE 1015,3 16 -
21.04.2018 13:00:00 17,1 9,8 13 7 ENE 1016,6 16 0,0
21.04.2018 12:00:00 14,5 9,7 16 9 ENE 1016,9 15 0,0
21.04.2018 11:00:00 12,8 9,4 13 7 ENE 1018,0 15 -
21.04.2018 10:00:00 11,7 9,1 16 9 ENE 1018,8 14 0,0
21.04.2018 09:00:00 10,9 9,2 9 5 NNE 1019,0 12 0,0
21.04.2018 08:00:00 10,3 8,9 5 3 NNE 1019,4 12 -
21.04.2018 07:00:00 10,4 9,0 13 7 ENE 1017,4 12 0,0
21.04.2018 06:00:00 10,6 8,9 15 8 ENE 1017,5 13 0,0
21.04.2018 05:00:00 10,8 8,9 13 7 NE 1017,4 13 -
21.04.2018 04:00:00 11,4 9,0 11 6 ENE 1018,2 14 0,0
21.04.2018 03:00:00 12,1 9,1 11 6 ENE 1018,9 15 0,0
21.04.2018 02:00:00 13,0 9,1 15 8 ENE 1019,3 16 -
21.04.2018 01:00:00 13,6 9,0 15 8 ENE 1019,1 17 0,0
21.04.2018 00:00:00 14,4 9,2 15 8 ENE 1018,0 16 0,0
20.04.2018 23:00:00 15,9 7,4 13 7 ENE 1017,5 20 -
20.04.2018 22:00:00 18,4 6,9 16 9 E 1016,0 20 0,0
20.04.2018 21:00:00 19,6 8,0 9 5 ENE 1014,5 20 0,0
20.04.2018 20:00:00 21,6 5,9 11 6 E 1013,6 19 -
20.04.2018 19:00:00 22,7 4,7 13 7 E 1013,4 20 0,0
20.04.2018 18:00:00 22,8 6,5 22 12 E 1013,3 20 0,0
20.04.2018 17:00:00 23,1 7,2 21 11 E 1013,5 19 -
20.04.2018 16:00:00 22,9 7,4 21 11 E 1013,9 18 0,0
20.04.2018 15:00:00 22,4 7,4 18 10 ENE 1014,6 18 0,0
20.04.2018 14:00:00 21,2 8,1 18 10 E 1015,4 20 -
20.04.2018 13:00:00 20,1 7,8 18 10 E 1016,5 17 0,0
20.04.2018 12:00:00 18,5 8,2 22 12 E 1017,3 16 0,0
20.04.2018 11:00:00 16,2 9,6 18 10 E 1017,9 20 -
20.04.2018 10:00:00 13,4 9,1 16 9 ENE 1018,9 14 0,0
20.04.2018 09:00:00 11,9 8,9 15 8 ENE 1019,3 13 0,0
20.04.2018 08:00:00 9,9 8,5 13 7 ENE 1019,7 15 -
20.04.2018 07:00:00 10,0 8,3 15 8 ENE 1019,6 13 0,0
20.04.2018 06:00:00 10,6 8,4 15 8 ENE 1019,6 15 0,0
20.04.2018 05:00:00 11,1 8,3 13 7 ENE 1019,6 17 -
20.04.2018 04:00:00 11,3 8,2 15 8 ENE 1019,8 18 0,0
20.04.2018 03:00:00 11,8 8,3 11 6 ENE 1020,3 19 0,0
20.04.2018 02:00:00 12,6 8,5 11 6 ENE 1020,3 20 -
20.04.2018 01:00:00 13,7 8,5 15 8 ENE 1020,2 20 0,0
20.04.2018 00:00:00 14,6 8,5 13 7 ENE 1019,9 20 0,0
19.04.2018 23:00:00 16,7 8,4 13 7 ENE 1019,0 20 -
19.04.2018 22:00:00 19,2 6,6 16 9 E 1017,6 20 0,0
19.04.2018 21:00:00 21,0 7,2 16 9 E 1016,1 20 0,0
19.04.2018 20:00:00 22,9 4,9 11 6 E 1015,4 20 -
19.04.2018 19:00:00 24,1 4,4 13 7 E 1015,3 20 0,0
19.04.2018 18:00:00 24,7 5,0 13 7 E 1015,4 20 0,0
19.04.2018 17:00:00 25,4 5,6 13 7 E 1015,6 25 -
19.04.2018 16:00:00 25,2 5,9 11 6 E 1016,4 20 0,0
19.04.2018 15:00:00 24,5 5,8 13 7 E 1017,2 20 0,0
19.04.2018 14:00:00 23,5 6,7 9 5 ENE 1018,2 25 -
19.04.2018 13:00:00 21,6 7,4 15 8 E 1019,5 18 0,0
19.04.2018 12:00:00 19,3 8,6 13 7 ENE 1020,6 19 0,0
19.04.2018 11:00:00 16,5 8,2 13 7 ENE 1021,4 25 -
19.04.2018 10:00:00 13,8 7,3 9 5 ENE 1022,3 20 0,0
19.04.2018 09:00:00 10,8 6,5 9 5 ENE 1023,0 20 0,0
19.04.2018 08:00:00 9,3 6,0 11 6 ENE 1023,2 20 -
19.04.2018 07:00:00 10,0 6,2 9 5 ENE 1022,9 20 0,0
19.04.2018 06:00:00 10,6 6,3 11 6 ENE 1022,8 20 0,0
19.04.2018 05:00:00 11,5 6,4 11 6 ENE 1022,9 20 -
19.04.2018 04:00:00 12,0 6,3 11 6 ENE 1022,8 20 0,0
19.04.2018 03:00:00 12,7 6,5 11 6 ENE 1023,0 20 0,0
19.04.2018 02:00:00 13,9 5,5 15 8 ENE 1022,8 20 -
19.04.2018 01:00:00 14,5 6,3 13 7 ENE 1022,3 20 0,0
19.04.2018 00:00:00 15,4 6,9 11 6 ENE 1022,0 20 0,0
18.04.2018 23:00:00 16,8 7,2 9 5 ENE 1021,4 20 -
18.04.2018 22:00:00 18,6 7,1 9 5 NNE 1020,4 20 0,0
18.04.2018 21:00:00 21,1 7,7 8 4 NNE 1019,2 20 0,0
18.04.2018 20:00:00 23,7 8,9 5 3 NNE 1018,6 25 -
18.04.2018 19:00:00 24,7 7,8 4 2 N 1018,5 20 0,0
18.04.2018 18:00:00 25,6 8,6 5 3 NNW 1018,6 20 0,0
18.04.2018 17:00:00 26,3 8,7 9 5 E 1018,8 25 -
18.04.2018 16:00:00 26,0 7,6 9 5 E 1019,3 20 0,0
18.04.2018 15:00:00 25,3 9,6 5 3 SE 1019,9 20 0,0
18.04.2018 14:00:00 23,3 10,4 9 5 E 1020,8 25 -
18.04.2018 13:00:00 21,5 10,3 5 3 E 1021,9 20 0,0
18.04.2018 12:00:00 19,2 9,9 4 2 NE 1022,9 20 0,0
18.04.2018 11:00:00 16,5 9,9 5 3 ENE 1023,7 20 -
18.04.2018 10:00:00 13,2 9,1 8 4 ENE 1024,3 19 0,0
18.04.2018 09:00:00 10,3 7,9 8 4 ENE 1025,1 17 0,0
18.04.2018 08:00:00 8,3 6,6 5 3 E 1025,5 20 -
18.04.2018 07:00:00 8,5 5,8 4 2 NE 1024,9 20 0,0
18.04.2018 06:00:00 9,1 6,0 5 3 ESE 1024,5 20 0,0
18.04.2018 05:00:00 9,4 6,1 2 1 ENE 1024,4 20 -
18.04.2018 04:00:00 10,3 6,6 2 1 N 1024,5 20 0,0
18.04.2018 03:00:00 11,0 6,7 8 4 NNE 1024,6 20 0,0
18.04.2018 02:00:00 11,9 6,6 2 1 NNE 1024,7 20 -
18.04.2018 01:00:00 13,0 6,3 2 1 NNE 1024,3 20 0,0
18.04.2018 00:00:00 14,2 5,5 4 2 ENE 1024,0 20 0,0
17.04.2018 23:00:00 15,5 6,5 2 1 NE 1023,6 20 -
17.04.2018 22:00:00 17,5 6,1 2 1 E 1022,7 20 0,0
17.04.2018 21:00:00 19,4 4,3 4 2 E 1021,9 20 0,0
17.04.2018 20:00:00 20,7 2,0 5 3 ENE 1021,4 25 -
17.04.2018 19:00:00 21,9 3,5 5 3 E 1021,0 20 0,0
17.04.2018 18:00:00 22,6 4,6 5 3 ENE 1020,8 20 0,0
17.04.2018 17:00:00 22,7 5,1 5 3 NE 1021,2 25 -
17.04.2018 16:00:00 22,0 7,4 5 3 NNW 1021,7 20 0,0
17.04.2018 15:00:00 21,2 7,1 8 4 E 1022,4 20 0,0
17.04.2018 14:00:00 19,8 7,8 9 5 E 1023,1 25 -
17.04.2018 13:00:00 18,3 9,1 9 5 E 1024,0 20 0,0
17.04.2018 12:00:00 16,6 8,3 11 6 E 1024,8 19 0,0
17.04.2018 11:00:00 14,2 8,8 8 4 ENE 1025,3 20 -
17.04.2018 10:00:00 11,5 7,6 5 3 NNE 1025,6 20 0,0
17.04.2018 09:00:00 8,0 6,0 2 1 SSE 1026,2 20 0,0
17.04.2018 08:00:00 6,0 5,3 4 2 E 1026,1 15 -
17.04.2018 07:00:00 6,0 5,0 4 2 SE 1025,7 18 0,0
17.04.2018 06:00:00 6,8 5,7 2 1 WSW 1025,4 19 0,0
17.04.2018 05:00:00 7,4 5,9 2 1 NNW 1025,0 20 -
17.04.2018 04:00:00 8,0 6,0 2 1 WSW 1024,8 20 0,0
17.04.2018 03:00:00 9,5 6,6 4 2 W 1024,5 20 0,0

tt = Température de l'air
td = dewpoint
ff = Vitesse du vent
dd = Direction du vent
ppp = reduced air pressure
vv = visibility
rr = Quantités de précipitations

stations d'obs. à proximité